Location: Newark
(45.8378°N, 5.5389°E)
Time: 20:35:12
(UTC+00:00)

YUBILEINY - Pass Details

Date: 24 December 2019
Orbit: 1478 x 1509 km, 82.5° (Epoch: 28 January)

Event Time Altitude Azimuth Distance (km) Brightness Sun altitude
Rises 18:48:57 0° 167° (SSE) 4,601 ? -28.8°
Reaches altitude 10° 18:51:54 10° 163° (SSE) 3,621 ? -29.3°
Enters shadow 18:55:42 28° 150° (SSE) 2,475 ? -29.9°
Exits shadow 19:09:39 - 15° (NNE) 3,991 ? -32.4°
Sets 19:11:30 0° 13° (NNE) 4,610 ? -32.7°
